Find Starlink 32904

NORAD ID: 63198 Int'l Des: 2025-048 Owner: SPXS Country: US Constellation: starlink operational
LEOCIRCULAR

Current View

Loading 3D Globe...

About Starlink 32904

Starlink 32904 (NORAD 63198) is a starlink constellation satellite (v2 mini) launched Mar 13, 2025 by SPXS of US. It operates in LEO, CIRCULAR orbit with a mass of 730.00 kg.

Upcoming Passes

Passes for default location (London). Set your location on the main map for personalized predictions.

Altitude History

Loading altitude history...

Two-Line Element Set

1 63198U 25048R 26235.01638172 .00011960 00000-0 44333-3 0 9999
2 63198 43.0016 225.6462 0001087 235.6735 124.4014 15.27587585 82534
Epoch: Aug 23, 2026 • Age: 25 hours

Current Status

Altitude 490.0 km
Apogee / Perigee N/A
Velocity 7.62 km/s
Sub-Earth Point -29.27°S, 90.53°E
Launch Date Mar 13, 2025
Age 1.4 years
Type internet

Technical Details

Classification Payload
Mass 730.00 kg
Dry Mass 700.00 kg
Total Mass 730.00 kg
Length 0.30 m
Diameter 4.10 m
Span 29.00 m
Shape Box + pan
Manufacturer SPXS
Bus Type Starlink V2M
Phase Status In Orbit
Owner/State SPXS/US

Most Searched